Time,TemperatureF,DewpointF,PressureIn,WindDirection,WindDirectionDegrees,WindSpeedMPH,WindSpeedGustMPH,Humidity,HourlyPrecipIn,Conditions,Clouds,dailyrainin,SolarRadiationWatts/m^2,SoftwareType,DateUTC
2013-03-07 14:54:00,66.3,32.0,30.24,SSE,151,3.0,7.0,28,0.00,,,0.00,522,weatherlink.com 1.10,2013-03-07 20:54:00,
2013-03-07 15:03:00,66.3,32.0,30.24,WSW,253,0.0,5.0,28,0.00,,,0.00,561,weatherlink.com 1.10,2013-03-07 21:03:00,
2013-03-07 15:18:00,66.6,32.0,30.24,ESE,121,3.0,5.0,28,0.00,,,0.00,647,weatherlink.com 1.10,2013-03-07 21:18:00,
2013-03-07 15:32:00,66.4,31.0,30.23,South,177,1.0,6.0,27,0.00,,,0.00,563,weatherlink.com 1.10,2013-03-07 21:32:00,
2013-03-07 15:47:00,65.6,31.0,30.22,SE,133,2.0,4.0,28,0.00,,,0.00,554,weatherlink.com 1.10,2013-03-07 21:47:00,
2013-03-07 16:02:00,66.2,30.0,30.22,SW,233,0.0,5.0,26,0.00,,,0.00,360,weatherlink.com 1.10,2013-03-07 22:02:00,
2013-03-07 16:17:00,65.9,32.0,30.22,SSE,148,1.0,6.0,28,0.00,,,0.00,371,weatherlink.com 1.10,2013-03-07 22:17:00,
2013-03-07 16:32:00,65.5,31.0,30.22,SSE,151,1.0,2.0,28,0.00,,,0.00,81,weatherlink.com 1.10,2013-03-07 22:32:00,
2013-03-07 16:47:00,65.0,31.0,30.22,SE,142,1.0,4.0,28,0.00,,,0.00,163,weatherlink.com 1.10,2013-03-07 22:47:00,
2013-03-07 17:02:00,64.8,31.0,30.22,SE,142,0.0,4.0,28,0.00,,,0.00,77,weatherlink.com 1.10,2013-03-07 23:02:00,
2013-03-07 17:17:00,63.7,34.0,30.22,SSW,199,0.0,5.0,33,0.00,,,0.00,49,weatherlink.com 1.10,2013-03-07 23:17:00,
2013-03-07 17:33:00,62.5,36.0,30.22,SSW,200,0.0,1.0,38,0.00,,,0.00,32,weatherlink.com 1.10,2013-03-07 23:33:00,
2013-03-07 17:48:00,60.5,39.0,30.22,SSW,200,0.0,1.0,45,0.00,,,0.00,19,weatherlink.com 1.10,2013-03-07 23:48:00,
2013-03-07 18:03:00,58.6,38.0,30.22,SSW,200,0.0,0.0,47,0.00,,,0.00,11,weatherlink.com 1.10,2013-03-08 00:03:00,
2013-03-07 18:18:00,56.6,40.0,30.22,SSW,200,0.0,0.0,54,0.00,,,0.00,0,weatherlink.com 1.10,2013-03-08 00:18:00,
2013-03-07 18:33:00,54.2,39.0,30.23,SSW,200,0.0,0.0,58,0.00,,,0.00,0,weatherlink.com 1.10,2013-03-08 00:33:00,
2013-03-07 18:48:00,52.2,40.0,30.23,SSW,200,0.0,0.0,63,0.00,,,0.00,0,weatherlink.com 1.10,2013-03-08 00:48:00,
2013-03-07 19:03:00,50.7,38.0,30.23,SSW,200,0.0,0.0,62,0.00,,,0.00,0,weatherlink.com 1.10,2013-03-08 01:03:00,
2013-03-07 19:18:00,49.5,38.0,30.23,SSW,200,0.0,2.0,64,0.00,,,0.00,0,weatherlink.com 1.10,2013-03-08 01:18:00,
2013-03-07 19:33:00,48.6,38.0,30.23,SSW,201,0.0,0.0,68,0.00,,,0.00,0,weatherlink.com 1.10,2013-03-08 01:33:00,
2013-03-07 19:48:00,47.6,38.0,30.23,SSW,200,0.0,0.0,69,0.00,,,0.00,0,weatherlink.com 1.10,2013-03-08 01:48:00,
2013-03-07 20:03:00,46.4,37.0,30.23,SSW,200,0.0,2.0,71,0.00,,,0.00,0,weatherlink.com 1.10,2013-03-08 02:03:00,
2013-03-07 20:18:00,45.4,37.0,30.24,SSW,202,0.0,2.0,72,0.00,,,0.00,0,weatherlink.com 1.10,2013-03-08 02:18:00,
2013-03-07 20:48:00,44.1,36.0,30.24,SSW,200,2.0,2.0,74,0.00,,,0.00,0,weatherlink.com 1.10,2013-03-08 02:48:00,
2013-03-07 21:03:00,43.1,36.0,30.24,SSW,200,0.0,0.0,75,0.00,,,0.00,0,weatherlink.com 1.10,2013-03-08 03:03:00,
2013-03-07 21:18:00,42.8,36.0,30.25,SSW,198,0.0,0.0,76,0.00,,,0.00,0,weatherlink.com 1.10,2013-03-08 03:18:00,
2013-03-07 21:33:00,42.2,35.0,30.24,SSW,200,0.0,0.0,76,0.00,,,0.00,0,weatherlink.com 1.10,2013-03-08 03:33:00,
2013-03-07 21:48:00,41.6,35.0,30.25,SSW,201,0.0,0.0,77,0.00,,,0.00,0,weatherlink.com 1.10,2013-03-08 03:48:00,
2013-03-07 22:03:00,41.3,35.0,30.25,SSW,199,0.0,0.0,78,0.00,,,0.00,0,weatherlink.com 1.10,2013-03-08 04:03:00,
2013-03-07 22:18:00,41.0,35.0,30.26,SSW,200,0.0,0.0,78,0.00,,,0.00,0,weatherlink.com 1.10,2013-03-08 04:18:00,
2013-03-07 22:33:00,40.7,34.0,30.25,SSW,201,0.0,0.0,78,0.00,,,0.00,0,weatherlink.com 1.10,2013-03-08 04:33:00,
2013-03-07 22:48:00,40.1,34.0,30.25,SSW,200,0.0,0.0,78,0.00,,,0.00,0,weatherlink.com 1.10,2013-03-08 04:48:00,
2013-03-07 23:03:00,39.4,33.0,30.25,SSW,200,0.0,2.0,79,0.00,,,0.00,0,weatherlink.com 1.10,2013-03-08 05:03:00,
2013-03-07 23:18:00,39.2,34.0,30.25,SSW,201,0.0,0.0,80,0.00,,,0.00,0,weatherlink.com 1.10,2013-03-08 05:18:00,
2013-03-07 23:33:00,39.0,33.0,30.24,SSW,200,0.0,0.0,80,0.00,,,0.00,0,weatherlink.com 1.10,2013-03-08 05:33:00,
2013-03-07 23:48:00,38.8,33.0,30.23,SSW,200,0.0,0.0,80,0.00,,,0.00,0,weatherlink.com 1.10,2013-03-08 05:48:00,